[[{"header":{"parameterUnit":"m.s-1","parameterCategory":1,"la1":30.2991,"la2":30.254,"lo1":-89.0895,"lo2":-89.0444,"dy":0.0017,"dx":0.0017,"nx":28,"ny":28,"refTime":"2024-05-17T09:00:00:Z","depth":0,"parameterNumber":2,"parameterNumberName":"U-component_of_WINDS"},"data":[0,0,0,0,0,0,0,0,0,0,0,0,0,0,0,0,0,0,0,0,0,0,0,0,0,0,0,0,0,0,0,0,0,0,0,0,0,0,0,0,0,0,0,0,0,0,0,0,0,0,0,0,0,0,0,0,0,0,-3.3659,-3.3653,0,-3.3092,-3.3085,-3.3079,-3.2658,-3.2654,-3.265,-3.2647,-3.2064,-3.2052,-3.204,0,0,0,0,0,0,0,0,0,0,0,0,0,-3.4379,-3.4368,-3.3659,-3.3652,-3.3645,-3.3093,-3.3085,-3.3077,-3.2658,-3.2654,-3.2649,-3.2645,-3.2068,-3.2053,-3.2039,0,0,0,0,0,0,0,0,0,0,0,0,0,-3.3965,-3.4365,-3.3661,-3.337,-3.3338,-3.3095,-3.3085,-3.3075,-3.2659,-3.2654,-3.2648,-3.2643,-3.2072,-3.2055,-3.2037,-3.2036,0,0,-3.1982,-3.1974,0,0,0,0,0,0,0,0,-3.3989,-3.3939,-3.3419,-3.3389,-3.3353,-3.294,-3.3124,-3.2727,-3.2661,-3.2917,-3.2647,-3.264,-3.236,-3.2318,-3.2223,-3.2009,-3.1984,-3.198,-3.1969,-3.1961,-3.1956,0,0,0,0,0,0,0,-3.4018,-3.3961,-3.3434,-3.3413,-3.3372,-3.3267,-3.3202,-3.3047,-3.2676,-3.2894,-3.2862,-3.2801,-3.234,-3.2242,-3.2206,-3.1975,-3.198,-3.1964,-3.1953,-3.1946,-3.1737,-3.1742,0,0,0,0,0,0,-3.4093,-3.3988,-3.3452,-3.3417,-3.3664,-3.3259,-3.3186,-3.3078,-3.2677,-3.261,-3.2806,-3.2784,-3.2275,-3.2228,-3.2184,-3.2158,-3.1961,-3.1944,-3.1934,-3.1732,-3.1738,-3.1744,0,0,0,0,0,0,-3.411,-3.4049,-3.3475,-3.3694,-3.3613,-3.3252,-3.3135,-3.307,-3.297,-3.261,-3.2542,-3.2774,-3.2269,-3.221,-3.2077,-3.2132,-3.1936,-3.192,-3.1726,-3.1734,-3.1741,-3.2108,0,0,0,0,0,0,-3.4132,-3.4058,-3.4053,-3.3697,-3.3603,-3.3378,-3.3138,-3.3063,-3.2941,-3.2906,-3.2562,-3.2499,-3.226,-3.2107,-3.206,-3.2104,-3.1906,-3.1719,-3.1729,-3.1739,-3.2089,-3.2128,-3.2161,0,0,0,0,0,-3.4159,-3.4177,-3.4055,-3.3992,-3.359,-3.3382,-3.3328,-3.3053,-3.2947,-3.2939,-3.2709,-3.251,-3.2136,-3.2097,-3.204,-3.208,-3.1714,-3.1726,-3.1738,-3.2073,-3.212,-3.216,0,0,0,0,0,0,-3.4545,-3.4125,-3.3984,-3.3887,-3.3675,-3.3312,-3.3293,-3.3111,-3.2922,-3.2897,-3.2564,-3.249,-3.2394,-3.2223,-3.2187,-3.2061,-3.19,-3.1902,-3.2175,-3.2216,-3.2251,-3.2293,-3.1891,0,0,0,0,0,-3.462,-3.4488,-3.4127,-3.4076,-3.3977,-3.3656,-3.3555,-3.3363,-3.3127,-3.3034,-3.2793,-3.2573,-3.2405,-3.2302,-3.2127,-3.2065,-3.1985,-3.2065,-3.2101,-3.2132,-3.2136,-3.2094,-3.2126,-3.1784,-3.1783,-3.1783,0,0,-3.477,-3.4525,-3.446,-3.4148,-3.3959,-3.383,-3.3581,-3.3453,-3.3354,-3.3014,-3.2874,-3.2693,-3.2424,-3.2329,-3.2274,-3.2184,-3.2214,-3.2147,-3.2175,-3.216,-3.2109,-3.2142,-3.2171,-3.1792,-3.179,-3.1789,0,0,-3.4979,-3.478,-3.4717,-3.4536,-3.4256,-3.4043,-3.4031,-3.3696,-3.3562,-3.3418,-3.3162,-3.304,-3.2758,-3.2578,-3.2451,-3.2603,-3.2413,-3.2556,-3.274,-3.2703,-3.273,-3.2752,-3.2807,-3.2831,-3.2562,-3.2562,-3.2563,0,-3.52,-3.4995,-3.4708,-3.4597,-3.4468,-3.4159,-3.4093,-3.3931,-3.3609,-3.3528,-3.3432,-3.3076,-3.2873,-3.2733,-3.2771,-3.2678,-3.2652,-3.259,-3.2749,-3.2769,-3.2785,-3.2834,-3.2856,-3.2581,-3.2579,-3.2577,-3.2576,0,-3.5283,-3.5146,-3.5129,-3.483,-3.4699,-3.4613,-3.4312,-3.4215,-3.4038,-3.3837,-3.3697,-3.3445,-3.3216,-3.3169,-3.2992,-3.3006,-3.2959,-3.2812,-3.2642,-3.2842,-3.2882,-3.2898,-3.2609,-3.2602,-3.2596,-3.2592,0,0,-3.571,-3.526,-3.5258,-3.5121,-3.4794,-3.4681,-3.4584,-3.4362,-3.4286,-3.4077,-3.3987,-3.376,-3.3623,-3.3479,-3.3281,-3.325,-3.3389,-3.3104,-3.3093,-3.3167,-3.339,-3.3502,-3.3528,-3.3264,-3.3266,-3.3268,-3.3413,0,-3.5867,-3.5673,-3.5415,-3.5308,-3.5179,-3.4888,-3.4803,-3.4595,-3.4406,-3.427,-3.4061,-3.3906,-3.3737,-3.3649,-3.3605,-3.3382,-3.3429,-3.3368,-3.3176,-3.3173,-3.325,-3.3549,-3.3664,-3.3813,-3.3427,-3.3429,-3.3431,0,-3.6021,-3.5832,-3.5715,-3.5404,-3.534,-3.5268,-3.5047,-3.492,-3.468,-3.4545,-3.4391,-3.4178,-3.4062,-3.3915,-3.3751,-3.3716,-3.3623,-3.3503,-3.3502,-3.3471,-3.3312,-3.3525,-3.3853,-3.3876,-3.3453,-3.3451,-3.3449,0,-3.6346,-3.6062,-3.5955,-3.5846,-3.5481,-3.5438,-3.5284,-3.5038,-3.4924,-3.4732,-3.4655,-3.4453,-3.4342,-3.4191,-3.3932,-3.3848,-3.3798,-3.3627,-3.3683,-3.3691,-3.3681,-3.3685,-3.3999,-3.3628,-3.3627,-3.3627,-3.3627,0,-3.6546,-3.6485,-3.6097,-3.6031,-3.5956,-3.5662,-3.5595,-3.5414,-3.5201,-3.5095,-3.4832,-3.474,-3.4403,-3.4273,-3.407,-3.3967,-3.3919,-3.3808,-3.3754,-3.3829,-3.3844,-3.3761,-3.3744,-3.3632,-3.3631,-3.363,-3.3629,0,-3.6893,-3.663,-3.6495,-3.6164,-3.6079,-3.6039,-3.5754,-3.568,-3.5481,-3.5352,-3.5305,-3.4991,-3.4823,-3.4552,-3.4304,-3.4168,-3.4102,-3.4013,-3.4184,-3.4151,-3.4222,-3.4219,-3.4491,-3.4513,-3.4133,-3.4137,-3.4141,0,-3.7036,-3.6983,-3.6649,-3.6561,-3.6418,-3.6279,-3.6162,-3.5874,-3.5763,-3.5491,-3.5451,-3.5264,-3.5098,-3.4846,-3.4596,-3.4408,-3.4311,-3.442,-3.428,-3.436,-3.4312,-3.4318,-3.4312,-3.4451,-3.4457,-3.4461,-3.4465,0,-3.7319,-3.7194,-3.7037,-3.6838,-3.6708,-3.6535,-3.635,-3.6293,-3.5964,-3.5854,-3.5681,-3.5554,-3.5305,-3.5123,-3.4901,-3.4742,-3.4551,-3.4513,-3.4515,-3.459,-3.4692,-3.4638,-3.427,-3.4506,-3.4502,-3.4499,-3.4497,-3.4495,-3.7566,-3.7508,-3.7265,-3.7101,-3.6933,-3.6768,-3.6684,-3.6477,-3.6328,-3.6103,-3.5943,-3.5782,-3.5548,-3.523,-3.5084,-3.4955,-3.4869,-3.4873,-3.4873,-3.4878,-3.4908,-3.4717,-3.4914,-3.4912,-3.4911,-3.491,-3.4908,0,-3.7835,-3.7667,-3.752,-3.7272,-3.7144,-3.6979,-3.6767,-3.6671,-3.6533,-3.6332,-3.6177,-3.5982,-3.5807,-3.5548,-3.5354,-3.5301,-3.5209,-3.526,-3.5259,-3.5227,-3.4996,-3.5012,-3.5338,-3.5338,-3.5338,-3.5338,-3.5338,-3.5338,-3.796,-3.7853,-3.7701,-3.751,-3.734,-3.7182,-3.7076,-3.6924,-3.6763,-3.6557,-3.6412,-3.6245,-3.6021,-3.581,-3.5644,-3.5572,-3.5513,-3.5592,-3.5494,-3.5282,-3.5242,-3.5204,-3.5218,-3.5582,-3.5582,-3.5734,-3.5736,-3.5737]},{"header":{"parameterUnit":"m.s-1","parameterCategory":1,"la1":30.2991,"la2":30.254,"lo1":-89.0895,"lo2":-89.0444,"dy":0.0017,"dx":0.0017,"nx":28,"ny":28,"refTime":"2024-05-17T09:00:00:Z","depth":0,"parameterNumber":3,"parameterNumberName":"V-component_of_WINDS"},"data":[0,0,0,0,0,0,0,0,0,0,0,0,0,0,0,0,0,0,0,0,0,0,0,0,0,0,0,0,0,0,0,0,0,0,0,0,0,0,0,0,0,0,0,0,0,0,0,0,0,0,0,0,0,0,0,0,0,0,1.5566,1.5566,0,1.5524,1.5523,1.5523,1.5554,1.5555,1.5556,1.5558,1.5515,1.5513,1.5511,0,0,0,0,0,0,0,0,0,0,0,0,0,1.5675,1.5673,1.5566,1.5566,1.5565,1.5524,1.5523,1.5523,1.5553,1.5555,1.5557,1.5558,1.5516,1.5513,1.551,0,0,0,0,0,0,0,0,0,0,0,0,0,1.563,1.5672,1.5567,1.5576,1.5576,1.5524,1.5523,1.5523,1.5553,1.5555,1.5557,1.5559,1.5517,1.5513,1.551,1.5447,0,0,1.5499,1.5497,0,0,0,0,0,0,0,0,1.5632,1.5626,1.5575,1.5575,1.5575,1.5546,1.5546,1.5497,1.5553,1.5562,1.5558,1.556,1.5524,1.552,1.5508,1.5445,1.5443,1.5499,1.5497,1.5495,1.5494,0,0,0,0,0,0,0,1.5635,1.5628,1.555,1.5574,1.5574,1.5582,1.5578,1.5537,1.5532,1.5561,1.5563,1.5558,1.5524,1.5511,1.5507,1.5443,1.5499,1.5496,1.5493,1.5492,1.5327,1.5325,0,0,0,0,0,0,1.5638,1.563,1.5551,1.5548,1.5609,1.5578,1.5574,1.5553,1.5533,1.5531,1.5556,1.5559,1.5516,1.5511,1.5505,1.5431,1.5495,1.5492,1.549,1.5329,1.5327,1.5324,0,0,0,0,0,0,1.564,1.563,1.5553,1.559,1.5581,1.5574,1.5551,1.5552,1.5538,1.5529,1.5528,1.5543,1.5517,1.551,1.5461,1.5429,1.549,1.5487,1.5332,1.5328,1.5325,1.528,0,0,0,0,0,0,1.5643,1.5631,1.5607,1.5589,1.5578,1.5509,1.5549,1.5549,1.5532,1.5535,1.5516,1.5515,1.5519,1.5467,1.5458,1.5426,1.5484,1.5335,1.533,1.5326,1.5285,1.5276,1.5268,0,0,0,0,0,1.5646,1.5596,1.5605,1.5596,1.5548,1.5507,1.5501,1.5506,1.5529,1.5505,1.5499,1.5516,1.5434,1.5461,1.5452,1.5418,1.5337,1.5332,1.5327,1.5288,1.5277,1.5268,0,0,0,0,0,0,1.5611,1.5594,1.5604,1.5546,1.5528,1.5512,1.5482,1.5494,1.5469,1.5474,1.5481,1.5476,1.5425,1.5417,1.5447,1.5356,1.5389,1.5382,1.5363,1.5353,1.5345,1.5348,1.5481,0,0,0,0,0,1.5596,1.5563,1.5551,1.5501,1.5491,1.5488,1.547,1.5475,1.5457,1.5449,1.544,1.5421,1.5392,1.5372,1.5344,1.5284,1.528,1.5256,1.5248,1.5241,1.5235,1.5202,1.5191,1.5308,1.5308,1.5308,0,0,1.5565,1.5552,1.5531,1.5494,1.548,1.5446,1.5481,1.5445,1.542,1.5444,1.5397,1.5389,1.5369,1.5314,1.5289,1.5305,1.5202,1.5235,1.5229,1.5226,1.5196,1.5184,1.5175,1.5304,1.5305,1.5305,0,0,1.5492,1.5479,1.5436,1.5421,1.54,1.5398,1.5388,1.537,1.5366,1.5319,1.5336,1.5307,1.5256,1.5241,1.5226,1.5147,1.5162,1.5138,1.5095,1.5063,1.5054,1.5046,1.5018,1.5008,1.5132,1.5132,1.5132,0,1.5457,1.5407,1.5413,1.5374,1.5357,1.5377,1.5333,1.5319,1.529,1.5277,1.5296,1.5232,1.522,1.5161,1.5142,1.513,1.5118,1.514,1.5055,1.5047,1.5039,1.5013,1.5002,1.5129,1.5129,1.513,1.513,0,1.5365,1.533,1.5298,1.5268,1.5247,1.5207,1.5206,1.5185,1.5191,1.5188,1.5139,1.5126,1.5095,1.5082,1.5088,1.5024,1.5035,1.5054,1.5088,1.5025,1.5,1.499,1.5125,1.5126,1.5127,1.5128,0,0,1.5269,1.5242,1.523,1.5217,1.5194,1.5168,1.5128,1.5098,1.5079,1.5058,1.5025,1.4981,1.4999,1.4982,1.4987,1.4959,1.4897,1.4982,1.4982,1.4967,1.4826,1.4811,1.4799,1.4907,1.4905,1.4904,1.4827,0,1.5194,1.5124,1.5128,1.5062,1.503,1.5048,1.5013,1.4996,1.4991,1.4964,1.4959,1.4928,1.4953,1.4944,1.4917,1.4911,1.4869,1.4916,1.4877,1.4875,1.4881,1.4786,1.4771,1.4699,1.4818,1.4816,1.4815,0,1.5098,1.5073,1.5004,1.4986,1.4973,1.4942,1.4914,1.4887,1.4868,1.4867,1.4848,1.4858,1.4818,1.4853,1.4798,1.483,1.4814,1.4809,1.4806,1.4803,1.4841,1.478,1.4677,1.4666,1.4799,1.4801,1.4802,0,1.5035,1.4984,1.4936,1.4924,1.4902,1.4879,1.4869,1.4852,1.4833,1.481,1.4798,1.477,1.4754,1.4733,1.4735,1.476,1.4679,1.4714,1.4677,1.4677,1.4659,1.466,1.4552,1.4649,1.465,1.465,1.465,0,1.4951,1.4908,1.4907,1.4877,1.483,1.4834,1.4787,1.478,1.4764,1.4734,1.4748,1.4719,1.4724,1.4695,1.4697,1.4651,1.4645,1.4643,1.4643,1.4641,1.4641,1.4631,1.4636,1.4647,1.4648,1.4648,1.4649,0,1.4872,1.4869,1.4818,1.4801,1.4796,1.4761,1.4747,1.4719,1.4716,1.4677,1.4668,1.4663,1.463,1.463,1.4593,1.4594,1.4538,1.4545,1.4544,1.4546,1.4509,1.4512,1.4389,1.4374,1.4482,1.4481,1.448,0,1.4819,1.4786,1.4765,1.4745,1.4733,1.4702,1.4682,1.4686,1.4666,1.4641,1.4616,1.4585,1.4559,1.4506,1.4499,1.4471,1.4477,1.4436,1.4473,1.4471,1.4476,1.4478,1.4475,1.4429,1.4427,1.4426,1.4426,0,1.4725,1.4725,1.4696,1.4667,1.4643,1.4621,1.46,1.4583,1.4584,1.4561,1.4527,1.4507,1.4469,1.4437,1.441,1.44,1.4413,1.4414,1.4404,1.4401,1.4402,1.4401,1.4524,1.4417,1.4418,1.4418,1.4419,1.4419,1.4657,1.4628,1.4609,1.4576,1.4561,1.4541,1.4514,1.4506,1.4478,1.4446,1.445,1.4412,1.4394,1.4358,1.4346,1.4317,1.4332,1.4317,1.4314,1.431,1.4306,1.4407,1.4312,1.4313,1.4313,1.4313,1.4313,0,1.4563,1.4551,1.4521,1.4491,1.4466,1.4479,1.4457,1.4435,1.4401,1.4383,1.4357,1.4318,1.4288,1.4278,1.4249,1.4228,1.4233,1.422,1.4221,1.4219,1.4295,1.4306,1.4216,1.4216,1.4216,1.4216,1.4216,1.4216,1.4512,1.4464,1.4461,1.4406,1.4395,1.4357,1.4343,1.4325,1.431,1.4265,1.424,1.4234,1.4219,1.4188,1.4161,1.4159,1.4148,1.4132,1.4133,1.4204,1.4213,1.4223,1.4234,1.413,1.413,1.4059,1.4059,1.4058]}]]